Theta_e
302 302 302 302 302 302 302 302 302 301 301 301 300 301 301 301 301 301 301 301 301 301 301 301 301 301 301 301 303 307 306 305 305 309 309 311 311 309 310 309 310 311 311
303 303 303 303 303 302 302 302 302 301 302 301 301 301 301 301 302 302 301 301 301 301 301 301 301 301 301 301 300 301 303 307 306 306 309 311 310 310 310 310 310 310 310
303 303 303 303 303 303 303 302 302 302 302 302 302 302 302 302 302 302 302 302 301 301 301 300 300 300 301 300 300 300 300 300 304 308 308 308 309 310 310 310 310 310 310
304 304 304 304 303 304 304 304 303 303 303 302 302 302 302 302 302 302 301 301 301 301 301 301 300 300 300 301 300 300 300 300 301 303 307 308 309 309 310 309 310 309 309
305 306 305 305 305 305 306 306 305 305 305 304 304 304 304 304 304 303 303 303 302 302 302 301 301 300 300 300 300 300 301 301 303 304 305 308 308 309 309 309 309 309 309
307 307 307 307 307 307 307 307 307 306 306 306 306 307 307 307 306 305 305 305 304 304 302 301 301 300 300 300 300 300 300 302 306 309 309 309 308 308 309 309 309 309 308
309 309 310 309 308 308 307 307 307 307 307 306 306 307 308 308 308 307 307 306 305 304 303 302 301 301 301 300 300 300 300 302 306 309 309 309 309 309 308 309 309 309 309
310 311 311 310 309 309 309 309 308 307 307 306 305 305 307 308 307 307 307 306 305 304 304 304 304 303 303 301 300 300 299 299 299 299 303 307 308 309 309 309 309 309 308
311 311 311 311 310 310 309 309 308 308 307 307 306 305 305 305 306 307 307 306 306 305 305 305 304 304 304 304 303 302 300 299 299 299 301 303 305 307 309 309 309 310 310
312 311 311 311 310 310 310 310 309 308 308 308 307 307 306 305 305 305 306 306 306 306 306 305 305 305 305 304 304 304 303 301 300 299 300 304 305 306 308 308 308 308 310
311 311 311 311 311 311 310 310 310 309 309 308 308 307 307 306 306 305 305 307 306 306 305 306 305 305 305 305 304 304 304 303 302 300 299 300 303 305 306 308 308 308 308
312 312 311 311 311 311 311 311 310 310 309 309 308 308 307 307 306 306 305 305 306 308 306 306 306 306 306 305 305 304 304 304 303 302 301 300 304 305 305 306 308 308 308
314 313 312 312 312 312 311 311 311 310 309 309 308 308 307 307 307 306 306 306 305 306 306 307 307 306 306 305 305 305 305 304 304 303 301 300 302 303 303 304 306 306 307
318 317 316 315 314 312 311 311 310 310 309 308 308 307 307 307 307 307 306 306 306 305 306 306 308 307 306 306 305 305 305 305 304 304 303 302 300 300 301 303 304 305 305
320 319 318 317 315 314 312 311 310 309 308 308 307 307 307 307 307 307 306 306 306 305 305 306 305 306 306 305 305 305 304 304 304 304 303 303 303 300 298 298 303 304 304
319 319 318 317 316 314 312 311 311 309 308 308 307 307 307 307 307 307 307 306 306 306 306 306 306 306 306 305 305 305 304 304 304 304 303 303 303 303 303 301 303 303 303
319 318 317 317 316 315 313 312 311 310 309 308 308 307 307 307 307 307 307 306 306 306 306 306 306 306 306 305 305 305 304 304 304 304 303 303 303 303 303 303 303 303 303
319 318 316 315 315 315 314 314 313 313 312 312 311 310 310 309 309 308 307 307 306 306 306 306 306 306 306 305 305 305 304 304 303 303 303 303 303 303 302 303 303 303 303
319 318 316 314 314 314 313 313 312 312 312 312 311 311 310 309 309 308 307 307 306 306 306 306 306 306 306 305 305 305 304 304 304 304 304 304 303 302 303 303 303 303 302
319 318 316 314 313 313 312 312 312 312 311 311 310 309 309 308 308 308 307 307 307 307 306 306 306 306 305 305 305 305 304 304 304 304 304 304 304 304 303 303 302 302 302
319 319 317 314 312 311 311 310 310 309 309 307 307 307 307 308 308 308 308 308 308 307 307 306 306 305 305 304 304 304 304 305 304 305 305 304 304 303 303 302 302 301 301
319 319 317 315 312 310 309 309 308 307 307 307 307 307 307 308 308 308 308 308 308 308 308 307 306 305 304 304 304 304 305 305 305 305 305 304 301 302 302 302 301 301 301
319 318 317 316 312 309 308 307 307 306 306 306 306 307 307 307 307 307 307 307 307 307 307 307 306 304 304 304 304 304 304 305 305 304 303 302 301 302 303 301 301 300 300
319 318 317 315 311 308 307 306 306 306 306 306 306 306 306 306 306 306 306 306 306 305 304 304 304 304 304 304 304 305 305 305 303 302 303 301 301 300 302 301 301 300 300
318 318 316 314 309 307 306 306 306 305 305 305 306 306 306 306 306 306 306 306 305 305 304 303 303 303 304 305 304 304 303 301 301 301 301 301 301 301 300 300 301 300 299
318 318 316 311 308 307 306 306 305 305 305 305 305 305 305 305 305 305 305 305 304 303 303 303 303 302 302 301 300 300 300 300 300 300 300 300 299 301 300 300 300 300 299
Wind_Speed
7 8 8 9 10 11 11 11 12 12 12 12 12 12 12 13 14 15 15 15 12 11 11 11 12 12 12 10 9 8 10 10 9 5 5 5 6 6 6 5 4 5 1
8 9 9 10 11 13 13 13 13 13 13 13 12 13 13 12 13 14 16 16 15 14 13 13 13 12 13 13 13 12 11 10 11 8 7 7 6 7 7 6 6 7 6
9 10 11 12 13 13 14 14 15 15 16 15 15 14 15 14 15 16 16 17 17 17 15 15 15 14 14 14 14 14 14 14 12 11 11 9 9 9 9 8 7 9 8
10 10 12 12 13 15 15 15 15 16 17 17 17 17 17 18 18 18 19 19 19 19 18 18 17 17 17 16 16 15 15 14 15 13 13 12 11 11 11 11 9 11 10
10 11 11 12 13 15 15 15 16 17 17 17 19 19 19 20 19 19 19 19 19 20 20 19 19 18 18 17 17 17 18 17 16 15 14 15 14 13 13 13 13 12 12
11 12 12 12 14 16 16 16 17 18 20 20 22 23 22 21 19 16 16 15 12 15 18 20 20 19 19 18 19 19 19 19 18 18 17 16 17 14 15 15 14 15 14
11 13 14 14 15 17 17 17 19 19 20 20 26 27 26 10 19 10 12 13 15 15 18 21 20 20 21 21 21 21 20 19 19 19 19 19 18 20 17 16 17 16 17
11 13 14 15 16 18 18 19 20 21 22 20 23 25 17 25 8 25 21 18 16 16 18 20 21 23 23 22 22 23 23 21 21 20 20 21 21 20 21 19 18 17 19
12 15 16 17 19 20 21 21 21 22 23 22 22 18 10 9 34 22 27 17 16 20 22 22 24 23 22 22 22 23 24 25 25 23 22 23 23 21 21 21 20 20 20
15 16 18 19 21 22 23 22 23 24 25 25 22 24 25 26 20 21 18 29 30 26 23 25 26 25 25 26 25 24 25 27 27 27 26 25 24 23 23 23 22 21 23
18 19 21 21 22 21 22 22 23 23 24 26 25 25 25 27 28 29 40 37 33 31 31 29 28 28 27 27 26 25 25 26 28 28 29 28 27 25 24 24 24 23 22
20 20 20 20 20 20 20 19 20 22 24 26 27 27 28 29 30 29 31 40 40 37 37 35 33 30 28 28 29 28 26 26 27 28 29 29 28 27 26 26 25 25 24
17 17 18 18 18 18 19 20 20 22 23 26 26 28 28 31 32 33 35 39 42 43 40 34 33 30 28 27 26 26 25 24 26 26 27 28 28 27 28 26 26 27 26
14 15 17 18 17 17 18 20 21 22 23 25 26 27 29 30 31 32 35 37 42 41 43 39 34 29 25 24 25 25 27 27 25 26 25 25 27 28 28 27 26 27 27
13 13 14 15 16 17 18 19 21 21 23 24 24 24 26 27 29 29 31 33 35 39 40 40 37 36 34 32 30 28 29 29 29 28 26 24 24 26 27 27 27 27 28
12 13 12 13 14 14 16 18 19 19 21 22 22 24 25 25 27 27 29 30 31 36 46 43 43 41 38 35 29 27 27 28 30 30 28 27 26 26 28 29 29 30 30
13 14 14 14 14 14 15 16 17 18 19 20 20 22 24 24 26 27 28 30 32 34 42 46 42 39 38 36 32 28 26 26 28 29 29 30 30 29 29 31 30 32 32
13 15 15 15 14 14 14 15 16 17 19 19 19 22 24 24 26 28 29 31 32 32 36 43 39 38 37 34 32 30 28 28 26 25 27 29 30 31 31 33 33 33 36
13 16 17 16 15 14 14 15 17 18 20 21 21 23 24 25 27 28 29 31 32 32 34 38 41 37 38 37 34 31 30 27 23 21 23 26 29 31 32 34 38 40 35
12 15 16 17 16 15 16 16 18 19 19 20 21 23 24 25 27 28 28 28 28 30 31 32 35 37 38 38 35 34 31 25 25 23 24 27 30 31 32 28 30 32 31
12 15 17 17 17 16 16 17 17 18 19 20 20 22 23 24 24 24 25 27 25 27 29 30 32 34 35 35 34 32 31 31 31 29 28 25 28 27 27 26 27 27 25
14 15 17 19 18 17 17 17 18 19 19 20 22 21 21 21 20 20 20 20 21 24 26 27 29 31 30 27 23 25 27 28 36 32 30 31 32 31 32 29 29 28 26
16 16 17 20 20 17 17 17 18 18 19 20 21 21 21 20 19 19 19 20 21 21 23 25 28 29 29 24 24 26 27 30 33 32 32 34 32 31 29 28 30 26 24
17 17 18 20 20 17 17 17 18 18 19 19 20 20 21 21 19 20 20 20 20 20 20 20 22 23 23 23 23 25 29 32 34 33 30 35 31 31 29 29 28 25 24
18 18 18 20 19 16 17 18 17 18 19 18 17 18 19 19 19 18 20 22 22 21 21 21 19 18 19 20 22 26 28 30 34 34 31 31 33 31 30 30 29 22 19
19 19 18 19 18 16 17 17 18 18 17 17 15 16 17 18 19 20 23 25 27 26 24 21 19 20 21 22 22 22 23 26 29 31 27 28 30 28 27 31 24 25 18
Wind_Direction
301 310 315 321 325 326 331 329 329 328 326 324 321 319 312 315 315 312 315 318 318 315 312 308 309 315 318 316 305 298 310 312 305 303 285 294 310 308 320 276 235 300 335
306 308 312 316 323 323 324 323 322 320 321 318 317 316 312 310 307 309 308 309 309 311 308 304 299 299 304 308 311 309 300 298 300 296 298 288 278 300 303 306 297 298 284
308 309 311 315 317 315 316 318 319 316 315 316 318 316 312 310 308 308 306 307 307 307 305 302 299 296 294 295 297 300 301 302 297 288 288 284 292 286 291 298 288 296 292
306 308 309 313 312 314 316 316 315 315 315 316 316 314 312 310 309 306 302 301 300 301 304 303 301 296 293 287 288 290 292 292 292 290 286 284 279 278 283 284 278 282 286
299 304 308 309 307 310 315 318 319 317 317 317 314 313 313 312 309 304 301 297 297 300 303 302 300 297 293 286 286 287 287 288 288 287 282 282 281 282 276 280 284 279 280
301 306 310 311 308 310 317 318 319 317 318 320 315 317 319 315 305 302 306 300 303 310 310 305 299 298 299 294 285 285 283 283 281 277 278 277 278 275 278 276 278 281 280
303 306 310 310 308 308 309 310 312 312 316 317 315 323 327 341 325 337 320 310 313 319 313 309 303 302 297 295 290 288 287 278 276 277 275 277 276 278 272 271 274 276 271
297 299 303 304 300 299 303 306 304 305 308 311 307 316 325 327 333 326 321 322 323 314 313 310 308 309 304 299 293 288 286 282 283 280 270 270 271 268 273 271 270 268 276
295 297 300 300 299 297 299 298 299 299 301 303 301 292 307 305 314 320 320 317 323 310 309 311 310 310 308 306 301 295 289 285 285 281 275 274 271 268 264 267 267 270 268
303 304 303 303 303 300 299 299 296 296 295 299 296 292 291 289 294 310 309 306 306 308 309 309 305 303 298 301 302 302 300 292 285 281 278 275 273 268 264 262 264 265 268
300 304 306 305 303 300 299 297 294 294 293 293 294 294 292 289 284 276 289 305 308 308 305 305 303 302 299 297 298 300 299 298 292 285 280 275 273 268 265 262 262 262 264
309 310 308 305 303 302 301 298 294 290 291 292 294 293 289 287 288 285 283 294 299 309 308 308 307 307 306 302 297 297 300 299 295 288 283 277 271 269 267 263 259 260 260
309 308 301 301 301 303 303 301 299 296 293 289 291 290 290 291 291 291 288 290 292 301 303 307 309 310 307 304 301 297 299 298 298 300 291 280 274 270 269 261 256 258 260
313 310 307 306 305 302 300 297 296 296 294 292 292 290 291 291 290 290 289 291 292 293 299 304 312 316 317 312 309 306 297 296 289 296 294 290 283 273 271 268 261 258 260
320 316 311 310 308 306 302 299 300 302 299 297 296 293 290 292 292 292 292 290 288 287 292 301 302 311 310 311 309 299 291 290 290 295 291 292 293 284 277 272 267 261 260
330 328 321 315 312 310 307 304 305 304 301 303 302 299 298 299 299 298 295 292 289 285 282 294 301 306 309 307 307 301 297 293 291 292 292 291 289 285 281 274 266 263 262
333 332 326 321 318 317 314 309 309 307 305 307 307 304 304 306 304 303 300 297 294 291 286 298 302 306 307 308 311 309 303 297 292 290 291 289 289 286 286 282 272 262 261
334 332 325 321 318 317 315 312 312 311 309 310 312 307 308 309 305 304 303 301 298 297 293 294 301 303 305 309 309 307 308 302 298 292 289 289 288 289 288 288 277 274 268
334 330 323 321 317 314 311 310 308 309 309 310 311 310 311 308 307 306 304 301 300 299 296 296 301 306 305 306 308 307 307 308 306 305 300 296 292 288 284 283 278 278 278
319 324 322 317 312 311 310 308 306 307 307 310 311 310 309 306 304 303 301 299 300 298 299 298 298 300 302 305 304 306 310 311 311 306 300 299 297 292 293 294 289 281 277
306 320 322 316 311 310 307 305 305 306 307 309 312 311 308 306 304 302 301 301 303 304 303 301 298 299 300 303 300 304 304 307 303 305 303 304 303 303 300 301 300 286 279
297 311 318 315 310 306 304 303 305 308 311 314 314 314 314 311 310 306 304 303 300 301 301 302 303 302 308 313 316 309 305 310 307 315 313 300 307 299 306 302 305 299 278
288 303 312 312 307 304 299 301 302 307 310 313 315 318 319 318 316 315 314 311 307 301 298 299 299 304 307 310 311 307 306 305 302 304 302 299 301 301 309 313 307 293 282
282 296 305 309 304 298 295 299 304 309 311 315 318 320 319 321 319 315 315 317 313 310 308 298 293 299 301 305 303 304 304 301 301 299 298 296 296 302 307 307 303 296 284
277 290 301 304 297 293 294 300 305 306 310 314 318 321 316 314 313 312 313 313 314 313 306 302 298 294 292 293 294 298 299 304 300 299 302 300 299 303 303 306 308 308 278
273 284 296 298 292 292 295 299 303 306 311 312 317 318 313 312 312 314 311 310 308 312 308 307 301 293 288 291 295 289 291 297 301 303 300 300 303 298 301 308 309 312 300